Kayseri, Turkey

12:08 AM +03 on January 24, 2018 (GMT +0300)
Erkilet Air Base

Weather History for LTAU - November, 2012

Change the Weather History Date:

Tuesday, November 20, 2012

  Actual Average Record
Temperature  
Mean Temperature 39 °F -  
Max Temperature 46 °F 44 °F 64 °F (2002)
Min Temperature 32 °F 24 °F 13 °F (2016)
Degree Days  
Heating Degree Days 26    
Moisture  
Dew Point 35 °F    
Average Humidity 85    
Maximum Humidity 100    
Minimum Humidity 62    
Precipitation  
Precipitation 0.00 in - - ()
Sea Level Pressure  
Sea Level Pressure 30.20 in    
Wind  
Wind Speed 1 mph ()    
Max Wind Speed 7 mph    
Max Gust Speed -    
Visibility 3.3 miles    
Events      
Averages and records for this station are not official NWS values.
T = Trace of Precipitation, MM = Missing Value Source: Averaged Metar Reports

Daily Weather History Graph

Daily Weather History Graph

Search for Another Location

Airport or City:

Trip Planner

Search our weather history database for the weather conditions in past years. The results will help you decide how hot, cold, wet, or windy it might be!

Date:

Astronomy

Nov. 20, 2012 Rise Set
Actual Time 6:26 AM EET 4:21 PM EET
Civil Twilight 5:57 AM EET 4:49 PM EET
Nautical Twilight 5:25 AM EET 5:22 PM EET
Astronomical Twilight 4:53 AM EET 5:54 PM EET
Moon 11:52 AM EET (11/20) 11:28 PM EET (11/20)
Length of Visible Light 10h 52m
Length of Day
9h 54m
Waxing Crescent, 48% of the Moon is Illuminated
Nov 20
Waxing Crescent
Nov 20
First Quarter
Nov 28
Full
Dec 6
Last Quarter
Dec 13
New

Hourly Weather History & Observations

Time (EET) Temp. Windchill Dew Point Humidity Pressure Visibility Wind Dir Wind Speed Gust Speed Precip Events Conditions
12:20 AM 41.0 °F - 37.4 °F 87% 30.21 in 3.1 mi Calm Calm - N/A   Overcast
12:50 AM 41.0 °F - 37.4 °F 87% 30.21 in 2.5 mi Variable 2.3 mph - N/A   Overcast
1:20 AM 41.0 °F - 37.4 °F 87% 30.21 in 2.8 mi Calm Calm - N/A   Overcast
1:50 AM 41.0 °F - 37.4 °F 87% 30.21 in - Variable 1.2 mph - N/A   Overcast
2:00 AM 40 °F - 36 °F 82%  in 3 mi North 1.2 mph - -   Mist
2:20 AM 41.0 °F - 35.6 °F 81% 30.21 in 4.3 mi Variable 1.2 mph - N/A   Overcast
2:50 AM 41.0 °F - 35.6 °F 81% 30.21 in - Variable 1.2 mph - N/A   Overcast
3:20 AM 41.0 °F 39.0 °F 35.6 °F 81% 30.21 in - NNW 3.5 mph - N/A   Overcast
3:50 AM 41.0 °F - 35.6 °F 81% 30.18 in - Variable 1.2 mph - N/A   Overcast
4:20 AM 41.0 °F - 35.6 °F 81% 30.21 in - Calm Calm - N/A   Overcast
4:50 AM 39.2 °F - 35.6 °F 87% 30.21 in - Calm Calm - N/A   Overcast
5:20 AM 39.2 °F 37.0 °F 35.6 °F 87% 30.21 in 5.0 mi NNW 3.5 mph - N/A   Overcast
5:50 AM 39.2 °F - 35.6 °F 87% 30.21 in 4.3 mi North 1.2 mph - N/A   Overcast
6:20 AM 39.2 °F - 35.6 °F 87% 30.21 in 2.8 mi Calm Calm - N/A   Overcast
6:50 AM 39.2 °F - 35.6 °F 87% 30.21 in - Variable 1.2 mph - N/A   Overcast
7:20 AM 39.2 °F 37.0 °F 35.6 °F 87% 30.21 in - East 3.5 mph - N/A   Overcast
7:50 AM 39.2 °F 35.9 °F 33.8 °F 81% 30.24 in - ESE 4.6 mph - N/A   Overcast
8:00 AM 38 °F - 34 °F 79%  in 3 mi ESE 4.6 mph - -   Mist
8:20 AM 39.2 °F - 33.8 °F 81% 30.24 in - East 2.3 mph - N/A   Overcast
8:50 AM 39.2 °F - 35.6 °F 87% 30.24 in - Variable 2.3 mph - N/A   Overcast
9:20 AM 39.2 °F - 35.6 °F 87% 30.24 in - Variable 2.3 mph - N/A   Overcast
9:50 AM 39.2 °F - 33.8 °F 81% 30.24 in 2.5 mi Variable 1.2 mph - N/A   Overcast
10:20 AM 39.2 °F - 35.6 °F 87% 30.24 in 2.5 mi Variable 2.3 mph - N/A   Overcast
10:50 AM 41.0 °F - 35.6 °F 81% 30.21 in 2.5 mi Calm Calm - N/A   Overcast
11:20 AM 41.0 °F - 33.8 °F 76% 30.21 in - Variable 1.2 mph - N/A   Overcast
11:50 AM 41.0 °F - 35.6 °F 81% 30.21 in 2.8 mi Variable 1.2 mph - N/A   Overcast
12:20 PM 42.8 °F - 35.6 °F 76% 30.21 in 3.1 mi Calm Calm - N/A   Overcast
12:50 PM 42.8 °F - 35.6 °F 76% 30.18 in 3.7 mi Calm Calm - N/A   Mostly Cloudy
1:20 PM 44.6 °F - 37.4 °F 76% 30.18 in 3.7 mi Variable 1.2 mph - N/A   Scattered Clouds
1:50 PM 44.6 °F - 35.6 °F 71% 30.18 in 3.7 mi Calm Calm - N/A   Scattered Clouds
2:00 PM 45 °F - 36 °F 62%  in 4 mi Calm Calm - -   Mist
2:20 PM 44.6 °F - 37.4 °F 76% 30.18 in 3.7 mi Variable 1.2 mph - N/A   Scattered Clouds
2:50 PM 46.4 °F - 37.4 °F 71% 30.15 in 5.0 mi Calm Calm - N/A   Scattered Clouds
3:20 PM 46.4 °F - 37.4 °F 71% 30.15 in 3.7 mi Calm Calm - N/A   Scattered Clouds
3:50 PM 44.6 °F - 37.4 °F 76% 30.18 in 3.7 mi Calm Calm - N/A   Scattered Clouds
4:20 PM 42.8 °F - 37.4 °F 81% 30.18 in 3.7 mi Calm Calm - N/A   Scattered Clouds
4:50 PM 41.0 °F 36.4 °F 35.6 °F 81% 30.18 in 3.7 mi WSW 6.9 mph - N/A   Scattered Clouds
5:20 PM 39.2 °F 35.0 °F 35.6 °F 87% 30.18 in 4.3 mi WSW 5.8 mph - N/A   Scattered Clouds
5:50 PM 37.4 °F 32.8 °F 35.6 °F 93% 30.18 in 3.7 mi SW 5.8 mph - N/A   Scattered Clouds
6:20 PM 35.6 °F 31.7 °F 33.8 °F 93% 30.18 in - SW 4.6 mph - N/A   Mostly Cloudy
6:50 PM 35.6 °F - 33.8 °F 93% 30.18 in - Calm Calm - N/A   Scattered Clouds
7:20 PM 35.6 °F - 32.0 °F 87% 30.21 in - Calm Calm - N/A   Scattered Clouds
7:50 PM 33.8 °F - 32.0 °F 93% 30.21 in 2.2 mi Calm Calm - N/A   Scattered Clouds
8:00 PM 34 °F - 33 °F 93%  in 2 mi Calm Calm - -   Mist
8:20 PM 32.0 °F - 30.2 °F 93% 30.21 in - Calm Calm - N/A   Scattered Clouds
8:50 PM 33.8 °F - 32.0 °F 93% 30.21 in 2.2 mi Calm Calm - N/A   Scattered Clouds
9:20 PM 33.8 °F - 32.0 °F 93% 30.18 in - Calm Calm - N/A   Scattered Clouds
9:50 PM 32.0 °F - 32.0 °F 100% 30.21 in 2.2 mi Calm Calm - N/A   Scattered Clouds
10:20 PM 33.8 °F - 33.8 °F 100% 30.18 in 2.5 mi Calm Calm - N/A   Scattered Clouds
10:50 PM 35.6 °F - 35.6 °F 100% 30.18 in - Calm Calm - N/A   Scattered Clouds
11:20 PM 37.4 °F - 35.6 °F 93% 30.18 in 2.8 mi Calm Calm - N/A   Scattered Clouds
11:50 PM 37.4 °F - 35.6 °F 93% 30.18 in 2.8 mi Calm Calm - N/A   Scattered Clouds